When you browse on this site, cookies collect data to enhance your experience and personalize the content and advertising you see.
Visit our Privacy Policy to learn more. By continuing to use the site, you agree to this use of cookies and data.
  • In Portugal
  • List of Countries
  • For 7 days
  • Water Temperature
  • Satellite Maps
  • Weather Map
  • Weather Widgets
  • user-avatar
    Login

    Hourly Weather Emona

    Today, 18 December, Tuesday

    Time Temperature Precipitation Wind Pressure Humidity
    00:00 +5°C° 0.2 mm 5 mps 764 mmHg 90%
    01:00 +3°C° 0.2 mm 6 mps 764 mmHg 89%
    02:00 +3°C° 0 mm 6 mps 764 mmHg 89%
    03:00 +3°C° 0.3 mm 6 mps 764 mmHg 89%
    04:00 +3°C° 0.3 mm 6 mps 764 mmHg 89%
    05:00 +2°C° 0.3 mm 6 mps 764 mmHg 89%
    06:00 +2°C° 0.2 mm 7 mps 764 mmHg 89%
    07:00 +2°C° 0.2 mm 7 mps 764 mmHg 89%
    08:00 +2°C° 0 mm 7 mps 765 mmHg 88%
    09:00 +1°C° 0.2 mm 8 mps 765 mmHg 88%
    10:00 +1°C° 0.2 mm 8 mps 765 mmHg 87%
    11:00 +1°C° 0.2 mm 8 mps 765 mmHg 87%
    12:00 +1°C° 0.1 mm 8 mps 765 mmHg 86%
    13:00 0°C° 0.1 mm 8 mps 765 mmHg 85%
    14:00 0°C° 0.1 mm 9 mps 765 mmHg 85%
    15:00 0°C° 0.1 mm 9 mps 765 mmHg 85%
    16:00 0°C° 0.1 mm 9 mps 765 mmHg 86%
    17:00 -1°C° 0.1 mm 9 mps 765 mmHg 86%
    18:00 -1°C° 0.2 mm 9 mps 765 mmHg 87%
    19:00 -3°C° 0.2 mm 9 mps 766 mmHg 87%
    20:00 -3°C° 0.2 mm 9 mps 766 mmHg 87%
    21:00 -3°C° 0.4 mm 9 mps 766 mmHg 88%
    22:00 -3°C° 0.4 mm 9 mps 766 mmHg 88%
    23:00 -3°C° 0.4 mm 9 mps 766 mmHg 89%

    Tomorrow, 19 December, Wednesday

    Time Temperature Precipitation Wind Pressure Humidity
    00:00 -4°C° 0.3 mm 10 mps 766 mmHg 88%
    01:00 -4°C° 0.3 mm 10 mps 766 mmHg 88%
    02:00 -4°C° 0.3 mm 10 mps 766 mmHg 88%
    03:00 -4°C° 0.3 mm 10 mps 766 mmHg 88%
    04:00 -4°C° 0.3 mm 10 mps 766 mmHg 88%
    05:00 -4°C° 0.3 mm 10 mps 766 mmHg 88%
    06:00 -5°C° 0.4 mm 10 mps 766 mmHg 87%
    07:00 -5°C° 0.4 mm 10 mps 767 mmHg 87%
    08:00 -5°C° 0.4 mm 10 mps 767 mmHg 86%
    09:00 -5°C° 0.2 mm 10 mps 767 mmHg 85%
    10:00 -4°C° 0.2 mm 10 mps 767 mmHg 83%
    11:00 -4°C° 0.2 mm 10 mps 768 mmHg 82%
    12:00 -4°C° 0.2 mm 10 mps 768 mmHg 81%
    13:00 -4°C° 0.2 mm 9 mps 768 mmHg 80%
    14:00 -4°C° 0.2 mm 9 mps 767 mmHg 79%
    15:00 -4°C° 0.1 mm 9 mps 768 mmHg 80%
    16:00 -4°C° 0.1 mm 9 mps 768 mmHg 81%
    17:00 -4°C° 0.1 mm 9 mps 768 mmHg 82%
    18:00 -4°C° 0.1 mm 8 mps 769 mmHg 83%
    19:00 -5°C° 0.1 mm 8 mps 769 mmHg 84%
    20:00 -5°C° 0.1 mm 8 mps 769 mmHg 85%
    21:00 -4°C° 0.1 mm 7 mps 769 mmHg 85%
    22:00 -4°C° 0.1 mm 7 mps 770 mmHg 84%
    23:00 -4°C° 0.1 mm 6 mps 770 mmHg 84%

    Day after tomorrow, 20 December, Thursday

    Time Temperature Precipitation Wind Pressure Humidity
    00:00 -4°C° 0 mm 6 mps 770 mmHg 85%
    01:00 -4°C° 0 mm 5 mps 770 mmHg 85%
    02:00 -4°C° 0 mm 4 mps 770 mmHg 85%
    03:00 -4°C° 0 mm 4 mps 770 mmHg 85%
    04:00 -4°C° 0 mm 4 mps 770 mmHg 85%
    05:00 -4°C° 0 mm 3 mps 770 mmHg 85%
    06:00 -4°C° 0 mm 3 mps 770 mmHg 85%
    07:00 -4°C° 0 mm 3 mps 771 mmHg 85%
    08:00 -4°C° 0 mm 3 mps 771 mmHg 84%
    09:00 -2°C° 0 mm 3 mps 771 mmHg 81%
    10:00 +1°C° 0 mm 2 mps 771 mmHg 78%
    11:00 +2°C° 0 mm 2 mps 771 mmHg 75%
    12:00 +4°C° 0 mm 1 mps 771 mmHg 75%
    13:00 +5°C° 0 mm 1 mps 771 mmHg 76%
    14:00 +5°C° 0 mm 1 mps 770 mmHg 76%
    15:00 +4°C° 0 mm 1 mps 770 mmHg 80%
    16:00 +4°C° 0 mm 1 mps 770 mmHg 84%
    17:00 +3°C° 0 mm 1 mps 770 mmHg 88%
    18:00 +3°C° 0 mm 1 mps 770 mmHg 89%
    19:00 +2°C° 0 mm 1 mps 770 mmHg 90%
    20:00 +2°C° 0 mm 1 mps 771 mmHg 91%
    21:00 +2°C° 0 mm 1 mps 771 mmHg 92%
    22:00 +2°C° 0 mm 1 mps 771 mmHg 92%
    23:00 +2°C° 0 mm 1 mps 771 mmHg 93%

    21 December, Friday

    Time Temperature Precipitation Wind Pressure Humidity
    00:00 +2°C° 0 mm 1 mps 771 mmHg 93%
    01:00 +2°C° 0 mm 1 mps 770 mmHg 93%
    02:00 +2°C° 0 mm 1 mps 770 mmHg 93%
    03:00 +2°C° 0 mm 1 mps 770 mmHg 93%
    04:00 +2°C° 0 mm 1 mps 770 mmHg 93%
    05:00 +2°C° 0 mm 1 mps 770 mmHg 93%
    06:00 +2°C° 0 mm 1 mps 770 mmHg 93%
    07:00 +2°C° 0 mm 1 mps 770 mmHg 93%
    08:00 +2°C° 0 mm 1 mps 770 mmHg 93%
    09:00 +3°C° 0 mm 1 mps 770 mmHg 91%
    10:00 +3°C° 0 mm 2 mps 770 mmHg 89%
    11:00 +5°C° 0 mm 2 mps 770 mmHg 88%
    12:00 +5°C° 0 mm 2 mps 769 mmHg 87%
    13:00 +5°C° 0 mm 2 mps 769 mmHg 86%
    14:00 +6°C° 0 mm 2 mps 769 mmHg 85%
    15:00 +5°C° 0 mm 2 mps 768 mmHg 87%
    16:00 +4°C° 0 mm 2 mps 768 mmHg 89%
    17:00 +3°C° 0 mm 2 mps 768 mmHg 91%
    18:00 +3°C° 0 mm 2 mps 769 mmHg 90%
    19:00 +2°C° 0 mm 2 mps 769 mmHg 89%
    20:00 +2°C° 0 mm 2 mps 769 mmHg 88%
    21:00 +1°C° 0 mm 3 mps 769 mmHg 86%
    22:00 +1°C° 0 mm 3 mps 769 mmHg 85%
    23:00 +1°C° 0 mm 3 mps 768 mmHg 84%

    22 December, Saturday

    Time Temperature Precipitation Wind Pressure Humidity
    00:00 +1°C° 0 mm 3 mps 768 mmHg 84%
    01:00 +1°C° 0 mm 3 mps 768 mmHg 84%
    02:00 +1°C° 0 mm 3 mps 768 mmHg 85%
    03:00 +1°C° 0 mm 3 mps 768 mmHg 85%
    04:00 +1°C° 0 mm 3 mps 768 mmHg 85%
    05:00 +1°C° 0 mm 3 mps 767 mmHg 85%
    06:00 +1°C° 0 mm 3 mps 767 mmHg 85%
    07:00 +2°C° 0 mm 3 mps 767 mmHg 85%
    08:00 +2°C° 0 mm 3 mps 767 mmHg 85%
    09:00 +3°C° 0 mm 3 mps 767 mmHg 83%
    10:00 +4°C° 0 mm 3 mps 767 mmHg 81%
    11:00 +6°C° 0 mm 4 mps 767 mmHg 79%
    12:00 +6°C° 0 mm 4 mps 767 mmHg 78%
    13:00 +7°C° 0 mm 4 mps 766 mmHg 78%
    14:00 +8°C° 0 mm 4 mps 766 mmHg 77%
    15:00 +7°C° 0 mm 4 mps 766 mmHg 80%
    16:00 +6°C° 0 mm 4 mps 766 mmHg 84%
    17:00 +5°C° 0 mm 4 mps 766 mmHg 87%
    18:00 +5°C° 0 mm 4 mps 766 mmHg 86%
    19:00 +4°C° 0 mm 4 mps 766 mmHg 85%
    20:00 +4°C° 0 mm 4 mps 767 mmHg 84%
    21:00 +4°C° 0 mm 4 mps 766 mmHg 84%
    22:00 +4°C° 0 mm 3 mps 766 mmHg 83%
    23:00 +4°C° 0 mm 3 mps 766 mmHg 83%

    23 December, Sunday

    Time Temperature Precipitation Wind Pressure Humidity
    00:00 +4°C° 0 mm 3 mps 766 mmHg 83%
    01:00 +4°C° 0 mm 3 mps 766 mmHg 83%
    02:00 +5°C° 0 mm 2 mps 766 mmHg 83%
    03:00 +4°C° 0 mm 3 mps 766 mmHg 83%
    04:00 +4°C° 0 mm 3 mps 766 mmHg 82%
    05:00 +4°C° 0 mm 3 mps 765 mmHg 82%
    06:00 +4°C° 0 mm 3 mps 765 mmHg 81%
    07:00 +4°C° 0 mm 4 mps 765 mmHg 81%
    08:00 +5°C° 0 mm 4 mps 765 mmHg 80%
    09:00 +6°C° 0 mm 4 mps 766 mmHg 78%
    10:00 +7°C° 0 mm 4 mps 766 mmHg 76%
    11:00 +8°C° 0 mm 4 mps 766 mmHg 73%
    12:00 +10°C° 0 mm 4 mps 766 mmHg 72%
    13:00 +11°C° 0 mm 4 mps 765 mmHg 71%
    14:00 +11°C° 0 mm 4 mps 765 mmHg 70%
    15:00 +10°C° 0 mm 4 mps 765 mmHg 73%
    16:00 +8°C° 0 mm 4 mps 765 mmHg 76%
    17:00 +8°C° 0 mm 4 mps 765 mmHg 80%
    18:00 +8°C° 0 mm 3 mps 766 mmHg 80%
    19:00 +8°C° 0 mm 3 mps 766 mmHg 80%
    20:00 +7°C° 0 mm 3 mps 766 mmHg 80%
    21:00 +7°C° 0 mm 3 mps 766 mmHg 81%
    22:00 +7°C° 0 mm 3 mps 767 mmHg 82%
    23:00 +7°C° 0 mm 3 mps 767 mmHg 83%
    Show more